Regional Weather Roundup
Issued by NWS Upton, NY

Current Version | Previous Version | Text Only | Print | Product List | Glossary On
Versions: 1 2 3 4 5 6 7 8 9 10 11 12 13 14 15 16 17 18 19 20 21 22 23 24 25 26 27 28 29 30 31 32 33 34 35 36 37 38 39 40 41 42 43 44 45 46 47 48 49 50
884
ASUS41 KOKX 230409
RWROKX

REGIONAL WEATHER ROUNDUP
NATIONAL WEATHER SERVICE NEW YORK NY
1200 AM EDT TUE MAY 23 2017

NOTE: "FAIR" INDICATES FEW OR NO CLOUDS BELOW 12,000 FEET WITH NO
SIGNIFICANT WEATHER AND/OR OBSTRUCTIONS TO VISIBILITY.

NYZ071-072-176-178-NJZ106-104-230500-
NEW YORK CITY METRO AREA

CITY           SKY/WX    TMP DP  RH WIND       PRES   REMARKS
Central Park   CLOUDY    60  59  96 CALM      29.98S FOG
Wall St Helipt CLOUDY    61  59  93 W5        29.96F
Bronx Bot Gard   N/A     59  57  94 CALM      29.96F
LaGuardia APRT CLOUDY    62  58  86 N9        29.94F
Kennedy INTL   CLOUDY    63  61  93 W7        29.96F
Breezy Point     N/A     57 N/A N/A NW5         N/A
Newark/Liberty CLOUDY    59  59 100 VRB6      29.95F
Teterboro      CLOUDY    61  59  93 CALM      29.94F FOG
$$

NYZ177-179-078>081-230500-
LONG ISLAND NEW YORK

CITY           SKY/WX    TMP DP  RH WIND       PRES   REMARKS
Jones Beach      N/A     59 N/A N/A NW5         N/A
Matinecock PT  NOT AVBL
Farmingdale    FOG       60  59  96 N6        29.95S VSB 1/4
MacArthur/ISP  CLOUDY    60  60 100 NW5       29.94S FOG
Shirley        CLOUDY    60  60 100 W3        29.95S FOG
Mt Sinai Harb    N/A     57 N/A N/A CALM        N/A
Westhampton    FOG       59  57  93 W3        29.96F VSB 1/4
East Hampton   FOG       58  57  99 CALM      29.93F VSB 1/2
Montauk          N/A     58  58 100 SW5       29.95F
$$

NYZ052-065-067-230500-
HUDSON VALLEY

CITY           SKY/WX    TMP DP  RH WIND       PRES   REMARKS
White Plains     N/A     58  57  97 NW9       29.95S FOG
Larchmont Harb   N/A     59 N/A N/A NW2         N/A
Croton O-T Hud   N/A     57 N/A N/A MISG        N/A
Newburgh       NOT AVBL
Montgomery     CLOUDY    58  56  93 W3        29.96S FOG
Poughkeepsie   FOG       56  55  97 CALM      29.95S VSB 3/4
Albany         CLOUDY    57  52  83 SW5       29.98S
$$

NJZ001-105-106-008-010-013-015-019>022-104-230500-
NEW JERSEY

CITY           SKY/WX    TMP DP  RH WIND       PRES   REMARKS
Newark/Liberty CLOUDY    59  59 100 VRB6      29.95F
Teterboro      CLOUDY    61  59  93 CALM      29.94F FOG
Caldwell       CLOUDY    62  57  83 W3        29.97S
Somerville     CLOUDY    60  59  96 VRB6      29.95S
Linden         CLOUDY    60  58  94 NW6       29.96S
Perth Amboy      N/A     59 N/A N/A W10         N/A
Sussex         CLOUDY    59  57  93 CALM      29.98S
Andover          N/A     58  56  93 CALM      29.98S
Trenton        CLOUDY    61  60  97 NW3       29.96S
Millville      CLOUDY    63  63 100 NW7       29.96R
Atlantic City  FOG       64  62  93 NW5       29.95S VSB 1/2
Wrightstown    CLOUDY    63  63 100 NW3       29.95R
Toms River     CLOUDY    63  62  97 NW5       29.96S FOG
Belmar         CLOUDY    62  61  96 W7        29.96S FOG
$$

PAZ047>061-062-071-230500-
EASTERN PENNSYLVANIA

CITY           SKY/WX    TMP DP  RH WIND       PRES   REMARKS
Philadelphia   CLOUDY    65  60  84 NW5       29.97S
Allentown      CLOUDY    61  57  87 CALM      29.98F
Scranton       MOCLDY    60  57  89 SW5       29.99R
$$

CTZ002-004>006-009-010-012-RIZ004-006-007-MAZ004-011-015-230500-
SOUTHERN NEW ENGLAND
 IN CT

CITY           SKY/WX    TMP DP  RH WIND       PRES   REMARKS
Bradley INTL   CLOUDY    53  53 100 N3        29.97F FOG
Hartford       CLOUDY    54  54 100 N9        29.97S FOG
Danbury        CLOUDY    54  54 100 NW3       29.97F FOG
Wtrbury/Oxford   N/A     55  50  82 N5        29.98S VSB 1/4
Bridgeport     FOG       59  57  93 N3        29.95F VSB 3/4
Meriden        CLOUDY    55  54  96 NW5       29.96F
New Haven      CLOUDY    56  55  97 N6        29.96S FOG
Chester        FOG       55  55 100 NW3       29.95S VSB<1/4
Groton         CLOUDY    57  56  96 CALM      29.93F FOG
Wilimantic     CLOUDY    57  55  93 N5        29.95F

 IN RI

CITY           SKY/WX    TMP DP  RH WIND       PRES   REMARKS
Providence     LGT RAIN  57  57 100 CALM      29.96F FOG
Block Island   LGT RAIN  57  56  96 S12       29.94F FOG
Westerly       CLOUDY    58  57  97 CALM      29.94F FOG
 IN MA

CITY           SKY/WX    TMP DP  RH WIND       PRES   REMARKS
Boston         LGT RAIN  53  53 100 N6        29.98F FOG
Worcester      CLOUDY    50  48  93 CALM      29.96F FOG
Westfield      CLOUDY    53  53 100 N5        29.97F
Provincetown   LGT RAIN  54  54 100 S9G17     29.96F
Nantucket      LGT RAIN  54  52  93 SE22      29.97F
$$

ANZ330-335-338-340-345-350-353-355-230500-
COASTAL MARINE OBSERVATIONS


STATION/POSITION TIME  SKY/WX   TEMP    WIND        PRES    VSBY  WAVE
                                AIR SEA DIR/SP/G                  HT/PER
                 (UTC)          (F)     (DEG/KT/KT) (MB)    (MI)  (FT/S)
NY HARB ENTRANCE 0250            58 56  270/  2/  2 1014.5          2/ 6
20 S FIRE ISLAND 0350            56 54  280/  4/  6 1013.5          3/ 6
GREAT SOUTH BAY  0315            60 64  270/  4/  4   N/A
23 SSW MONTAUK P 0250            56 54              1014.2          4/ 5
15 E BARNEGAT LI 0330               57                N/A           3/ 6
HUDSON CANYON    0250            58 54  140/  8/ 10 1014.1          3/ 5
KINGS POINT      0348            59 57  360/  6/  8 1014.1
EXECUTION ROCKS  0345            60                   N/A
CENTRAL LI SOUND 0330            56      10/  4/  4   N/A           0
EASTERN LI SOUND NOT AVBL
ROBBINS REEF     0348            61     310/  5/  6 1014.7
$$


>>>>>>>>>>>>>>>>>>>>>>>>>>>> KEY <<<<<<<<<<<<<<<<<<<<<<<<<<<
>                                                          <
>     SKY/WX - Sky Condition/Present Weather               <
>     TMP    - Temperature in Fahrenheit                   <
>     DP     - Dew Point in Fahrenheit                     <
>     RH     - Relative Humidity in Percent                <
>     WIND   - Direction (from) and Speed in MPH           <
>     PRES   - Mean Sea Level Pressure (inches of Hg)      <
>     WCI    - Wind Chill Index                            <
>     VSB    - VISIBILITY IN MILES                         <
>     HX     - HEAT INDEX                                  <
>     TC     - TEMPERATURE IN CELSIUS                      <
>     VRB    - VARIABLE WIND DIRECTION                     <
>                                                          <
>>>>>>>>>>>>>>>>>>>>>>>>>>>> KEY <<<<<<<<<<<<<<<<<<<<<<<<<<<




USA.gov is the U.S. government's official web portal to all federal, state and local government web resources and services.